EW1762 Weather Reports


time (UTC)temp
C
wind
direction
speed
KPH
gust
KPH
rain 1hr
cm
rain 24hr
cm
rain mn
cm
humidity
%
barometer
mb
20260504050642 5 273 0.0 0.0 0.00 0.00 0.00 86 1015.0
20260504050142 5 273 0.0 0.0 0.00 0.00 0.00 86 1015.1
20260504045915 5 273 0.0 0.0 0.00 0.00 0.00 85 1015.0
20260504045144 5 273 0.0 0.0 0.00 0.00 0.00 85 1015.0
20260504044643 5 274 0.0 0.0 0.00 0.00 0.00 84 1015.0
20260504044139 5 273 0.0 0.0 0.00 0.00 0.00 84 1015.0
20260504043635 5 273 0.0 0.0 0.00 0.00 0.00 84 1015.0
20260504043135 5 273 0.0 0.0 0.00 0.00 0.00 84 1015.0
20260504042635 5 273 0.0 0.0 0.00 0.00 0.00 83 1015.0
20260504042132 5 273 0.0 0.0 0.00 0.00 0.00 83 1014.7
20260504041638 5 273 0.0 0.0 0.00 0.00 0.00 83 1014.6
20260504041633 5 274 0.0 0.0 0.00 0.00 0.00 84 1014.6
20260504040631 5 274 0.0 0.0 0.00 0.00 0.00 82 1014.8
20260504040131 5 273 0.0 0.0 0.00 0.00 0.00 82 1014.7
20260504035901 5 273 0.0 0.0 0.00 0.00 0.00 82 1014.6
20260504035130 5 273 0.0 0.0 0.00 0.00 0.00 82 1014.6
20260504034629 6 273 0.0 0.0 0.00 0.00 0.00 82 1014.6
20260504034130 6 274 0.0 0.0 0.00 0.00 0.00 82 1014.5
20260504033632 6 273 0.0 0.0 0.00 0.00 0.00 81 1014.4
20260504033126 6 274 0.0 0.0 0.00 0.00 0.00 81 1014.4
20260504032626 6 273 0.0 0.0 0.00 0.00 0.00 80 1014.3
20260504032123 6 274 0.0 0.0 0.00 0.00 0.00 80 1014.3
20260504031626 6 274 0.0 0.0 0.00 0.00 0.00 80 1014.3
20260504031124 6 274 0.0 0.0 0.00 0.00 0.00 79 1014.2
20260504030624 6 273 0.0 0.0 0.00 0.00 0.00 78 1014.2
20260504030122 6 273 0.0 0.0 0.00 0.00 0.00 77 1014.3
20260504025620 6 273 0.0 0.0 0.00 0.00 0.00 76 1014.3
20260504025118 7 274 0.0 0.0 0.00 0.00 0.00 76 1014.3
20260504024618 7 273 0.0 0.0 0.00 0.00 0.00 75 1014.3
20260504024115 7 274 0.0 0.0 0.00 0.00 0.00 75 1014.2
20260504023615 7 273 0.0 0.0 0.00 0.00 0.00 73 1014.1
20260504023350 7 273 0.0 0.0 0.00 0.00 0.00 71 1014.2
20260504022613 7 273 0.0 0.0 0.00 0.00 0.00 71 1014.2
20260504022342 7 273 0.0 0.0 0.00 0.00 0.00 70 1014.2
20260504021604 8 274 0.0 0.0 0.00 0.00 0.00 71 1014.1
20260504021104 8 273 0.0 0.0 0.00 0.00 0.00 70 1014.2
20260504020837 8 273 0.0 0.0 0.00 0.00 0.00 69 1014.2
20260504020106 8 274 0.0 0.0 0.00 0.00 0.00 68 1014.2
20260504015606 8 274 0.0 0.0 0.00 0.00 0.00 66 1014.1
20260504015106 8 274 0.0 0.0 0.00 0.00 0.00 67 1014.1
20260504014604 8 273 0.0 0.0 0.00 0.00 0.00 65 1014.1
20260504014105 8 273 0.0 0.0 0.00 0.00 0.00 64 1014.0
20260504013605 9 274 0.0 0.0 0.00 0.00 0.00 63 1014.1
20260504013105 9 274 0.0 0.0 0.00 0.00 0.00 63 1014.0
20260504012842 9 274 0.0 0.0 0.00 0.00 0.00 63 1014.0
20260504012100 10 273 0.0 0.0 0.00 0.00 0.00 63 1013.8
20260504011601 10 274 0.0 0.0 0.00 0.00 0.00 62 1013.9
20260504011102 10 274 0.0 0.0 0.00 0.00 0.00 60 1013.8
20260504010833 10 274 0.0 0.0 0.00 0.00 0.00 61 1013.7
20260504010101 10 274 0.0 0.0 0.00 0.00 0.00 60 1013.8
20260504005602 10 274 0.0 0.0 0.00 0.00 0.00 59 1013.7
20260504005058 11 274 0.0 0.0 0.00 0.00 0.00 52 1013.6
20260504004558 11 273 0.0 0.0 0.00 0.00 0.00 51 1013.6
20260504004328 11 274 0.0 0.0 0.00 0.00 0.00 51 1013.6
20260504003557 11 274 0.0 0.0 0.00 0.00 0.00 50 1013.6
20260504003057 12 274 0.0 0.0 0.00 0.00 0.00 47 1013.4
20260504002556 12 274 0.0 0.0 0.00 0.00 0.00 46 1013.4
20260504002058 13 274 0.0 0.0 0.00 0.00 0.00 45 1013.3
20260504001558 13 274 0.0 0.0 0.00 0.00 0.00 42 1013.2
20260504001104 13 274 0.0 0.0 0.00 0.00 0.00 39 1013.2
20260504001059 13 274 0.0 0.0 0.00 0.00 0.00 41 1013.2
20260504000050 14 274 0.0 0.0 0.00 0.00 0.00 38 1013.2
20260503235823 14 274 0.0 0.0 0.00 0.00 0.00 37 1013.1
20260503235321 15 274 0.0 0.0 0.00 0.00 0.00 36 1013.0
20260503234550 15 274 0.0 0.0 0.00 0.00 0.00 35 1013.0
20260503234321 15 274 0.0 1.6 0.00 0.00 0.00 34 1012.9
20260503233549 15 274 0.0 1.6 0.00 0.00 0.00 34 1012.8
20260503233049 15 296 0.0 11.3 0.00 0.00 0.00 34 1012.8
20260503232545 15 258 0.0 11.3 0.00 0.00 0.00 33 1012.7
20260503232046 15 242 0.0 3.2 0.00 0.00 0.00 32 1012.8
20260503231543 16 234 0.0 3.2 0.00 0.00 0.00 32 1012.8
20260503231043 16 299 0.0 8.0 0.00 0.00 0.00 32 1012.9
20260503230543 16 330 0.0 8.0 0.00 0.00 0.00 30 1012.8
20260503230314 16 248 0.0 1.6 0.00 0.00 0.00 31 1012.9
20260503225539 16 292 0.0 4.8 0.00 0.00 0.00 30 1012.9
20260503225039 16 240 1.6 20.9 0.00 0.00 0.00 30 1012.9
20260503224538 16 290 3.2 20.9 0.00 0.00 0.00 30 1012.9
20260503224040 16 304 1.6 14.5 0.00 0.00 0.00 30 1012.8
20260503223537 16 248 0.0 6.4 0.00 0.00 0.00 31 1012.7
20260503223040 16 315 0.0 0.0 0.00 0.00 0.00 30 1012.7
20260503222534 16 323 0.0 0.0 0.00 0.00 0.00 31 1012.7
20260503222035 16 250 0.0 24.1 0.00 0.00 0.00 30 1012.7
20260503221535 16 323 0.0 24.1 0.00 0.00 0.00 31 1012.8
20260503221033 16 229 1.6 24.1 0.00 0.00 0.00 30 1012.9
20260503220531 16 269 1.6 24.1 0.00 0.00 0.00 30 1012.8
20260503220030 16 266 0.0 4.8 0.00 0.00 0.00 29 1012.9
20260503215527 16 252 0.0 11.3 0.00 0.00 0.00 30 1012.9
20260503215027 16 240 0.0 11.3 0.00 0.00 0.00 32 1012.8
20260503214529 16 269 0.0 20.9 0.00 0.00 0.00 30 1012.7
20260503214031 16 267 0.0 14.5 0.00 0.00 0.00 32 1012.7
20260503214027 16 324 0.0 20.9 0.00 0.00 0.00 30 1012.7
20260503213255 16 297 1.6 20.9 0.00 0.00 0.00 29 1012.7
20260503212521 16 227 1.6 20.9 0.00 0.00 0.00 30 1012.7
20260503212020 16 285 3.2 20.9 0.00 0.00 0.00 30 1012.7
20260503211520 16 238 1.6 20.9 0.00 0.00 0.00 29 1012.8
20260503211021 16 300 1.6 16.1 0.00 0.00 0.00 30 1012.8
20260503210520 16 329 4.8 24.1 0.00 0.00 0.00 30 1012.8
20260503210025 16 263 6.4 24.1 0.00 0.00 0.00 31 1012.7
20260503210017 16 284 4.8 22.5 0.00 0.00 0.00 31 1012.9
20260503205013 15 236 6.4 19.3 0.00 0.00 0.00 31 1012.9
20260503204513 16 242 8.0 20.9 0.00 0.00 0.00 29 1012.9
20260503204245 16 259 4.8 20.9 0.00 0.00 0.00 32 1012.9
20260503203513 15 288 1.6 16.1 0.00 0.00 0.00 31 1012.9
20260503203013 15 247 4.8 25.7 0.00 0.00 0.00 31 1013.0
20260503202507 15 267 4.8 25.7 0.00 0.00 0.00 32 1013.0
20260503202007 15 315 3.2 20.9 0.00 0.00 0.00 32 1013.0
20260503201510 15 314 4.8 20.9 0.00 0.00 0.00 33 1013.1
20260503201007 15 248 6.4 27.4 0.00 0.00 0.00 33 1013.2
20260503200507 15 291 8.0 27.4 0.00 0.00 0.00 32 1013.4
20260503200007 15 250 8.0 32.2 0.00 0.00 0.00 32 1013.3
20260503195502 16 263 4.8 32.2 0.00 0.00 0.00 32 1013.4
20260503195233 15 290 4.8 25.7 0.00 0.00 0.00 33 1013.4
20260503194502 15 300 8.0 25.7 0.00 0.00 0.00 32 1013.5
20260503194003 15 254 6.4 33.8 0.00 0.00 0.00 32 1013.5
20260503193501 15 227 4.8 33.8 0.00 0.00 0.00 32 1013.7
20260503193004 15 323 4.8 24.1 0.00 0.00 0.00 35 1013.6
20260503192455 15 248 8.0 38.6 0.00 0.00 0.00 34 1013.7
20260503191955 15 265 11.3 38.6 0.00 0.00 0.00 33 1013.8
20260503191456 15 287 8.0 25.7 0.00 0.00 0.00 32 1013.7
20260503190956 15 301 3.2 24.1 0.00 0.00 0.00 33 1013.7
20260503190455 15 294 6.4 24.1 0.00 0.00 0.00 34 1013.8
20260503185955 15 333 8.0 29.0 0.00 0.00 0.00 33 1013.9
20260503185449 15 289 4.8 29.0 0.00 0.00 0.00 34 1014.1
20260503184951 15 252 3.2 27.4 0.00 0.00 0.00 34 1014.0
20260503184727 14 303 4.8 20.9 0.00 0.00 0.00 34 1014.1
20260503184451 15 335 3.2 27.4 0.00 0.00 0.00 34 1014.1
20260503183448 15 221 4.8 29.0 0.00 0.00 0.00 33 1014.2
20260503182949 14 236 6.4 29.0 0.00 0.00 0.00 34 1014.2
20260503182446 14 0 6.4 27.4 0.00 0.00 0.00 34 1014.4
20260503181947 14 301 4.8 29.0 0.00 0.00 0.00 35 1014.3
20260503181447 14 254 3.2 29.0 0.00 0.00 0.00 33 1014.3
20260503180945 14 224 4.8 25.7 0.00 0.00 0.00 33 1014.3
20260503180446 14 340 8.0 32.2 0.00 0.00 0.00 32 1014.3
20260503175944 14 300 9.7 32.2 0.00 0.00 0.00 35 1014.4
20260503175447 14 213 8.0 29.0 0.00 0.00 0.00 32 1014.5
20260503175220 14 276 3.2 29.0 0.00 0.00 0.00 33 1014.4
20260503174436 14 246 1.6 20.9 0.00 0.00 0.00 35 1014.4
20260503174209 13 278 4.8 25.7 0.00 0.00 0.00 34 1014.4
20260503173439 13 281 9.7 25.7 0.00 0.00 0.00 34 1014.6
20260503172931 13 263 11.3 32.2 0.00 0.00 0.00 34 1014.6
20260503172425 13 327 12.9 32.2 0.00 0.00 0.00 35 1014.7
20260503171927 13 256 11.3 29.0 0.00 0.00 0.00 35 1014.6
20260503171659 13 258 6.4 25.7 0.00 0.00 0.00 36 1014.6
20260503170927 13 278 1.6 17.7 0.00 0.00 0.00 37 1014.7
20260503170426 13 298 4.8 24.1 0.00 0.00 0.00 37 1014.7
20260503150912 11 355 8.0 25.7 0.00 0.00 0.00 40 1015.4
20260503150412 11 340 8.0 25.7 0.00 0.00 0.00 39 1015.5
20260503150408 11 292 8.0 25.7 0.00 0.00 0.00 39 1015.5
20260503131348 9 300 8.0 29.0 0.00 0.00 0.00 49 1015.5
20260503130849 9 288 9.7 25.7 0.00 0.00 0.00 51 1015.5
20260503130348 8 16 8.0 24.1 0.00 0.00 0.00 51 1015.5
20260503110826 5 238 0.0 6.4 0.00 0.00 0.00 65 1014.5
20260503110327 5 246 0.0 6.4 0.00 0.00 0.00 66 1014.4
20260503090254 5 312 0.0 0.0 0.00 0.00 0.00 70 1013.0
20260503081252 6 208 0.0 8.0 0.00 0.00 0.00 68 1012.6
20260503080747 6 276 0.0 8.0 0.00 0.00 0.00 68 1012.5
20260503080246 6 294 0.0 6.4 0.00 0.00 0.00 67 1012.5
20260503072746 6 258 0.0 9.7 0.00 0.00 0.00 68 1012.0
20260503072243 6 307 0.0 11.3 0.00 0.00 0.00 68 1012.0
20260503071745 6 317 0.0 11.3 0.00 0.00 0.00 68 1012.0
20260503071242 6 330 0.0 0.0 0.00 0.00 0.00 68 1012.0
20260503070740 6 355 0.0 4.8 0.00 0.00 0.00 69 1011.9
20260503070243 6 355 0.0 12.9 0.00 0.00 0.00 69 1012.0
20260503070239 6 291 0.0 4.8 0.00 0.00 0.00 69 1012.0
20260503060226 6 257 0.0 1.6 0.00 0.00 0.00 70 1012.1
20260503054721 6 254 0.0 0.0 0.00 0.00 0.00 71 1012.2
20260503054225 6 254 0.0 0.0 0.00 0.00 0.00 71 1012.2
20260503053717 6 254 0.0 0.0 0.00 0.00 0.00 71 1012.2